User: anonymous   Login
Location: Newark
(48.3453°N, 0.5589°E)
Time: 01:40:30
(UTC+00:00)
Language:

A-11 Canister half - Orbit

View from above orbital plane
View from above orbital plane
View from above satellite
View from above satellite

Ground track
Ground track

The orbit data is extracted from the following two-line orbital elements,

1 00051U 60009C   21024.37437048 -.00000089  00000-0 -26688-4 0  9999
2 00051  47.2147  23.9464 0104257 100.1665 261.0901 12.18270480691029
Epoch (UTC): 24 January 2021 08:59:05
Eccentricity: 0.0104257
inclination: 47.2147°
perigee height: 1517 km
apogee height: 1683 km
right ascension of ascending node: 23.9464°
argument of perigee: 100.1665°
revolutions per day: 12.18270480
mean anomaly at epoch: 261.0901°
orbit number at epoch: 69102

The dashed part of the orbit path shows where the satellite is in the earth's shadow,  

DLR